EHI
24 24 21 15 11 9 7 6 5 5 6 7 7 7 7 7 6 5 4 3 3 2 3 3 1 0 0 0 0 0 0 0 0 0 0 0 0 0 0 0 0 0 0
23 24 22 18 14 11 8 7 7 8 9 9 9 10 11 10 9 6 4 3 3 3 4 3 2 1 0 0 0 0 0 0 0 0 0 0 0 0 0 0 0 0 0
22 23 22 20 17 13 10 10 11 12 13 12 12 13 14 14 12 10 7 5 5 5 4 4 4 2 1 0 0 0 0 0 0 0 0 0 0 0 0 0 0 0 0
20 20 21 20 17 14 13 14 17 18 17 15 14 13 14 14 14 12 11 9 8 7 6 6 5 4 2 1 0 0 0 0 0 0 0 0 0 0 0 0 0 0 0
19 18 18 17 16 15 15 18 21 22 20 17 14 13 13 14 14 14 14 13 13 12 10 9 7 6 3 1 0 1 1 1 0 0 0 0 0 0 0 0 0 0 0
18 16 14 14 16 17 19 21 23 23 22 19 16 13 12 12 13 13 14 15 15 14 14 11 9 7 5 1 0 1 2 1 0 0 0 0 0 0 0 0 0 0 0
19 17 15 15 17 20 22 23 23 23 23 20 16 14 12 10 10 10 11 13 14 14 13 11 9 7 5 2 0 1 1 1 0 0 0 0 0 0 0 0 0 0 0
22 21 22 22 21 22 24 25 23 23 23 20 17 16 13 9 7 5 6 10 13 12 10 8 6 5 4 2 0 0 0 0 0 0 0 0 0 0 0 0 0 0 0
25 26 30 31 29 28 29 28 25 23 22 18 17 17 15 12 7 4 6 11 14 12 8 5 4 4 3 1 0 0 0 0 0 0 0 0 0 0 0 0 0 0 0
27 29 34 37 36 35 35 32 28 25 22 18 16 17 17 15 11 6 7 12 14 11 7 5 4 3 2 1 0 0 0 0 0 0 0 0 0 0 0 0 0 0 0
27 30 34 37 38 38 37 34 30 26 21 16 15 15 16 16 13 7 5 8 11 9 7 5 4 3 2 1 0 0 0 0 0 0 0 0 0 0 0 0 0 0 0
27 30 33 35 37 37 35 32 30 25 19 14 13 14 15 15 11 6 4 4 6 8 7 5 4 3 1 0 0 0 0 0 0 0 0 0 0 0 0 0 0 0 0
30 32 34 34 35 34 31 29 27 24 19 15 13 14 14 13 10 6 3 2 3 5 5 5 4 2 1 0 0 0 0 0 0 0 0 0 0 0 0 0 0 0 0
35 35 35 34 32 31 28 26 25 24 21 17 15 14 13 12 10 7 4 2 2 2 3 3 2 1 0 0 0 0 0 0 0 0 0 0 0 0 0 0 0 0 0
39 38 37 35 32 30 27 24 23 22 19 16 14 12 12 11 9 6 3 1 1 1 2 2 1 0 0 1 2 1 0 0 0 0 0 0 0 0 0 0 0 0 0
40 39 38 37 34 31 27 23 21 18 14 11 9 8 8 8 5 2 1 0 0 1 1 2 1 1 1 2 3 2 1 0 0 0 0 0 0 0 0 0 0 0 0
39 39 39 38 35 31 27 24 21 17 12 7 4 3 3 3 2 0 0 0 0 0 1 2 3 2 1 1 2 2 1 0 0 0 0 0 0 0 0 0 0 0 0
38 39 39 38 36 32 28 26 24 21 17 11 5 1 0 0 0 0 0 0 0 0 1 2 3 3 1 1 1 1 0 0 1 1 1 0 0 0 0 0 0 0 0
34 36 36 36 34 32 29 27 25 23 20 16 10 4 2 1 0 0 0 0 0 0 0 1 3 3 2 2 2 2 1 1 2 2 1 0 0 0 0 0 0 0 0
27 28 29 30 29 28 26 24 22 21 19 16 12 8 5 3 1 1 1 1 1 0 0 1 2 2 2 1 1 2 1 1 2 2 1 0 0 0 0 0 0 0 0
22 20 20 21 22 21 19 18 18 17 17 15 13 10 7 5 3 2 2 2 2 1 0 0 1 1 1 0 1 1 1 1 1 1 0 0 0 0 0 0 0 0 0
17 15 14 15 15 14 12 12 12 13 13 13 12 10 7 5 4 3 3 3 2 1 0 1 1 1 1 1 1 2 2 1 0 0 0 0 0 0 0 0 0 0 0
12 11 10 10 10 10 9 8 8 8 8 9 10 9 7 5 4 3 3 2 2 1 0 1 2 2 1 1 1 1 1 1 0 0 0 0 0 0 0 0 0 0 0
7 7 6 6 7 7 7 6 6 6 6 7 7 7 7 6 4 2 1 1 1 0 0 1 1 1 1 0 0 0 0 0 0 0 0 0 0 0 0 0 0 0 0
5 4 4 5 6 6 5 5 6 6 6 6 6 6 6 6 4 2 0 0 0 0 0 0 0 0 0 0 0 0 0 0 0 0 0 0 0 0 0 0 0 0 0
3 3 4 5 6 6 4 4 4 4 4 5 6 6 6 5 3 1 0 0 0 0 0 0 0 0 0 0 0 0 0 0 0 0 0 0 0 0 0 0 0 0 0
Wind_Speed
7 6 6 5 4 4 3 3 3 2 2 3 3 3 2 2 2 2 1 1 2 1 1 1 1 1 1 1 1 2 1 2 3 1 1 1 2 1 1 1 1 1 1
8 7 6 5 5 4 4 3 3 3 3 3 3 3 3 2 2 2 2 2 2 1 1 1 0 1 1 1 2 2 2 2 3 3 1 1 2 2 2 2 2 2 1
8 7 6 6 5 5 4 4 4 4 3 3 3 3 2 2 2 2 2 2 2 2 2 2 1 2 1 1 1 2 1 2 2 3 2 1 1 1 1 1 1 1 2
8 8 7 7 6 6 5 4 4 4 4 3 3 3 3 3 2 2 2 2 2 2 2 2 2 2 2 2 2 2 2 2 2 2 2 1 1 1 2 1 1 1 2
9 8 8 7 6 5 5 4 4 4 4 4 3 3 2 2 2 3 3 3 2 2 2 2 2 3 3 3 2 3 3 2 2 2 2 1 1 2 3 2 2 1 1
9 8 7 7 6 6 6 5 4 4 4 4 3 3 3 2 3 5 4 2 2 2 2 2 2 2 2 2 3 5 6 5 4 3 3 3 4 3 3 3 2 1 2
9 8 8 8 7 7 7 5 5 5 4 4 4 4 3 4 5 5 5 3 3 3 3 2 1 1 2 1 2 2 3 4 7 6 5 5 5 5 4 4 4 4 4
9 8 8 8 7 7 6 6 5 4 4 4 4 4 4 4 5 6 6 3 2 3 3 3 3 2 3 3 2 1 1 2 4 4 5 6 5 5 6 6 5 3 2
9 9 9 8 8 7 7 6 5 5 4 4 4 4 4 4 5 6 5 3 2 3 2 3 3 3 5 5 3 2 2 3 3 4 5 5 5 6 5 3 2 2 2
9 8 8 8 8 8 7 6 4 4 5 4 4 4 4 4 5 6 7 3 3 2 2 2 4 5 5 6 4 4 3 4 2 2 2 3 4 5 7 6 5 4 2
7 7 6 7 7 7 6 5 4 4 4 3 4 4 4 5 6 7 8 4 4 3 3 3 3 5 6 7 6 5 7 5 3 2 2 2 2 3 4 4 5 5 4
6 6 6 6 6 6 5 5 5 5 4 4 3 3 3 4 5 7 8 8 6 4 4 4 4 5 6 6 6 6 6 4 2 2 2 3 3 4 4 4 5 6 6
7 6 6 5 5 5 6 6 4 4 4 4 4 4 4 3 4 7 9 9 8 5 4 5 5 5 5 5 6 6 5 3 2 2 4 4 4 4 3 2 3 3 4
7 7 6 5 4 4 4 4 5 5 5 5 4 4 4 3 3 3 4 4 6 5 3 3 4 4 3 3 3 3 3 3 4 4 4 4 2 2 2 3 3 3 2
7 6 6 5 5 4 3 3 5 5 6 6 6 5 5 5 7 7 6 5 5 5 3 1 1 1 2 2 2 3 3 3 4 4 3 3 3 3 3 3 3 2 3
6 5 4 4 4 4 3 1 2 3 5 7 8 7 6 8 7 7 8 8 7 7 5 3 4 4 5 5 4 4 4 4 5 4 4 4 4 4 4 3 2 3 4
6 5 4 4 4 4 4 4 3 2 3 4 7 9 9 8 7 7 7 7 7 8 5 5 5 5 5 5 5 5 5 5 4 4 4 4 4 4 3 3 3 3 4
4 5 5 4 4 4 4 4 4 4 3 3 5 7 9 9 8 7 6 5 3 4 5 5 5 5 4 5 5 4 4 3 3 4 4 4 4 4 4 4 4 4 4
2 2 3 3 3 4 4 3 3 4 4 3 2 3 4 4 4 4 6 4 5 6 6 5 5 4 4 4 4 4 4 4 4 4 4 4 4 4 4 4 4 5 4
1 2 2 2 2 2 3 3 3 3 3 3 3 3 2 1 2 3 4 5 5 5 5 5 5 5 4 4 4 4 4 4 4 4 4 4 4 4 5 5 4 4 4
1 1 2 1 2 2 2 3 3 3 4 4 4 4 6 4 4 5 5 5 5 6 6 5 4 4 4 4 4 4 5 4 4 4 4 4 4 4 4 4 4 4 4
2 1 1 1 1 2 2 2 3 3 4 4 4 3 7 4 4 4 5 5 6 6 5 5 4 4 4 4 4 4 4 4 4 4 4 4 4 4 3 3 3 2 3
2 2 1 1 2 2 2 2 2 3 3 4 4 3 3 4 4 4 4 4 4 4 4 4 4 4 3 4 4 4 5 5 4 4 4 4 4 3 3 3 3 3 3
2 2 2 1 1 2 2 3 3 3 3 3 3 3 3 4 4 4 4 3 3 3 3 3 4 5 5 4 3 3 3 4 3 3 5 4 4 4 3 3 3 4 3
2 2 2 2 2 2 2 3 3 3 3 3 3 3 3 3 2 2 2 2 3 3 3 3 3 3 4 4 4 3 3 4 3 3 3 3 4 4 3 3 2 2 3
2 2 2 1 1 2 2 2 3 3 2 2 2 2 2 2 2 2 2 2 2 2 2 2 3 3 3 3 3 3 3 3 3 3 2 2 3 3 2 2 3 2 2
Wind_Direction
174 173 170 170 170 163 162 170 169 163 156 148 143 141 138 136 130 124 139 128 119 92 75 101 90 106 114 120 118 116 121 130 145 210 219 174 159 173 162 178 161 170 195
174 171 174 170 169 168 174 179 173 167 163 159 151 150 157 158 153 151 166 148 144 149 152 116 109 122 119 140 140 149 149 142 142 166 192 172 191 189 182 195 192 190 204
172 172 173 174 176 179 182 181 174 169 167 163 155 161 169 169 171 177 172 171 175 177 172 165 177 137 140 161 153 153 159 142 134 148 174 191 202 181 154 220 193 204 213
174 175 178 183 183 184 182 179 177 173 172 175 175 175 176 176 177 185 175 179 185 187 184 182 181 173 181 178 163 164 150 133 133 141 158 183 194 189 154 192 238 249 231
174 179 186 184 178 177 178 181 179 179 183 181 172 176 176 171 187 185 183 178 179 187 196 202 193 180 179 179 169 169 154 148 150 153 168 168 198 182 198 199 208 224 259
175 184 183 177 176 181 185 184 179 183 181 170 171 176 184 196 190 179 170 178 181 182 202 227 213 180 187 182 172 173 172 169 177 175 186 199 214 208 194 189 179 163 252
179 183 181 183 184 189 191 185 186 187 179 178 184 182 194 205 194 187 185 177 187 200 203 201 210 202 188 172 171 169 192 197 187 182 191 209 207 204 185 192 196 196 217
179 183 182 183 190 189 186 188 191 186 183 188 195 197 200 212 199 196 193 185 193 211 210 201 201 200 207 191 179 189 243 242 220 204 204 214 209 203 196 196 198 205 242
182 186 187 184 186 185 189 193 189 183 187 191 194 198 204 224 209 203 188 181 199 225 229 215 206 205 218 194 173 198 258 282 264 232 218 219 217 208 189 161 165 169 237
190 189 185 186 185 189 194 190 182 182 193 190 201 206 206 216 212 204 189 178 198 226 239 240 222 216 214 196 188 192 222 249 257 276 259 251 241 226 206 192 187 188 207
185 178 179 190 190 190 187 181 176 179 185 195 208 218 214 216 213 204 194 187 200 209 220 235 238 228 220 212 204 206 223 223 223 227 244 253 252 238 222 212 201 192 201
166 172 181 188 189 183 179 183 178 176 184 202 213 231 232 221 209 209 204 204 201 200 218 226 232 223 217 217 215 226 226 213 206 220 238 247 247 243 236 225 218 217 217
163 176 182 181 184 179 180 185 183 185 194 207 212 224 236 228 220 215 210 211 207 206 224 225 222 219 217 223 233 229 220 210 206 221 235 242 240 241 240 241 243 237 243
172 181 181 182 184 186 186 188 190 197 203 207 210 220 227 224 224 222 218 217 216 221 235 243 236 233 224 232 236 233 224 219 214 229 240 248 250 244 242 231 233 234 249
178 183 183 185 183 188 199 203 199 210 207 202 209 211 212 225 231 214 202 207 209 209 185 172 201 233 240 244 240 237 227 222 228 236 239 245 247 244 249 239 229 226 230
174 181 183 181 181 180 182 210 237 223 223 219 219 214 225 229 228 218 217 215 204 178 160 193 216 223 227 229 231 234 224 224 227 227 233 235 238 239 244 243 226 224 237
181 183 180 182 184 189 189 192 219 273 269 244 235 229 227 227 223 218 217 210 194 169 182 213 220 224 227 228 227 226 228 229 225 222 228 234 236 237 238 240 235 236 243
180 188 185 187 188 193 196 200 201 206 235 262 257 245 240 236 228 217 198 170 189 197 215 222 227 228 227 226 225 227 232 234 229 230 231 235 232 233 239 241 235 233 242
169 191 195 191 193 197 197 198 204 212 221 237 256 261 246 233 220 208 178 193 212 218 223 229 230 228 226 224 225 225 226 228 228 226 230 233 233 229 236 241 239 241 235
178 188 194 198 193 193 193 194 203 214 223 229 237 235 206 176 213 209 204 219 224 224 222 225 227 225 219 217 220 222 228 232 230 229 235 237 235 229 233 237 236 234 233
178 182 184 206 209 208 207 207 209 210 217 225 234 224 195 201 216 219 216 219 223 225 226 224 223 224 222 219 218 220 224 233 233 233 235 237 235 234 233 232 233 232 234
169 186 179 194 220 213 215 217 214 220 223 228 239 229 208 210 217 223 224 223 223 224 222 215 218 223 219 215 215 217 225 236 238 235 237 239 238 237 237 233 235 234 226
162 176 187 205 205 212 219 224 224 228 232 231 233 229 214 220 228 228 230 231 228 228 223 212 215 225 225 219 216 214 220 231 230 225 229 236 237 235 230 228 226 229 233
168 184 193 206 217 216 221 229 232 234 235 236 233 228 221 220 225 226 227 228 218 215 214 211 213 219 221 217 216 222 228 232 228 224 221 224 231 232 222 220 221 221 225
190 198 202 208 216 225 231 234 238 238 237 239 239 234 227 218 220 226 224 231 227 215 213 210 214 217 220 217 217 224 234 231 227 219 211 213 222 220 214 215 221 227 228
210 215 222 220 217 222 225 235 245 248 243 243 245 229 212 207 207 216 226 233 236 223 215 217 216 208 207 216 222 225 224 223 226 220 202 201 210 211 203 206 214 221 226